Kinloss, United Kingdom

6:44 PM GMT on February 26, 2017 (GMT +0000)
Kinloss Air Base

Weather History for EGQK - February, 2013

Change the Weather History Date:

Saturday, February 9, 2013

  Actual Average Record
Temperature  
Mean Temperature 38 °F -  
Max Temperature 41 °F 45 °F 57 °F (1998)
Min Temperature 35 °F 33 °F 12 °F (2009)
Degree Days  
Heating Degree Days 27    
Moisture  
Dew Point 34 °F    
Average Humidity 84    
Maximum Humidity 93    
Minimum Humidity 72    
Precipitation  
Precipitation 0.01 in 0.05 in - ()
Sea Level Pressure  
Sea Level Pressure 29.99 in    
Wind  
Wind Speed 5 mph ()    
Max Wind Speed 13 mph    
Max Gust Speed -    
Visibility 6.6 miles    
Events Rain    
Averages and records for this station are not official NWS values.
T = Trace of Precipitation, MM = Missing Value Source: Averaged Metar Reports

Daily Weather History Graph

Daily Weather History Graph

Search for Another Location

Airport or City:

Trip Planner

Search our weather history database for the weather conditions in past years. The results will help you decide how hot, cold, wet, or windy it might be!

Date:

Astronomy

Feb. 09, 2013 Rise Set
Actual Time 7:58 AM GMT 4:59 PM GMT
Civil Twilight 7:16 AM GMT 5:41 PM GMT
Nautical Twilight 6:30 AM GMT 6:27 PM GMT
Astronomical Twilight 5:45 AM GMT 7:12 PM GMT
Moon 7:01 AM GMT (2/9) 4:29 PM GMT (2/9)
Length of Visible Light 10h 24m
Length of Day
9h 00m
Waning Crescent, 1% of the Moon is Illuminated
Feb 9
Waning Crescent
Feb 10
New
Feb 17
First Quarter
Feb 25
Full
Mar 4
Last Quarter

Hourly Weather History & Observations

Time (GMT) Temp. Windchill Dew Point Humidity Pressure Visibility Wind Dir Wind Speed Gust Speed Precip Events Conditions
12:50 AM 37.4 °F 32.1 °F 33.8 °F 87% 30.09 in 6.2 mi SSW 6.9 mph - N/A Rain Light Rain
1:50 AM 37.4 °F 33.8 °F 33.8 °F 87% 30.09 in 6.2 mi SSW 4.6 mph - N/A Rain Light Rain
2:50 AM 37 °F - 35 °F 87% 30.09 in 17 mi ESE 2.3 mph - - Rain Light Rain
2:50 AM 37.4 °F - 33.8 °F 87% 30.06 in 6.2 mi ESE 2.3 mph - N/A Rain Light Rain
3:50 AM 37.4 °F - 33.8 °F 87% 30.06 in 6.2 mi ESE 2.3 mph - N/A   Overcast
4:50 AM 35.6 °F - 33.8 °F 93% 30.06 in 6.2 mi ESE 1.2 mph - N/A Rain Light Rain Showers
5:50 AM 37 °F - 35 °F 88% 30.07 in 22 mi ESE 3.5 mph - - Rain Light Rain
5:50 AM 37.4 °F 34.9 °F 35.6 °F 93% 30.06 in 6.2 mi ESE 3.5 mph - N/A Rain Light Rain
6:50 AM 37.4 °F 34.9 °F 33.8 °F 87% 30.06 in 6.2 mi East 3.5 mph - N/A Rain Light Rain
7:50 AM 35.6 °F 31.7 °F 33.8 °F 93% 30.06 in 6.2 mi East 4.6 mph - N/A   Mostly Cloudy
8:50 AM 36 °F - 34 °F 90% 30.07 in 25 mi NE 4.6 mph - -   Scattered Clouds
8:50 AM 35.6 °F 31.7 °F 33.8 °F 93% 30.06 in 6.2 mi NE 4.6 mph - N/A   Overcast
9:50 AM 37.4 °F 32.8 °F 35.6 °F 93% 30.04 in 6.2 mi East 5.8 mph - N/A   Overcast
10:50 AM 39.2 °F 34.2 °F 35.6 °F 87% 30.04 in 6.2 mi East 6.9 mph - N/A   Overcast
11:50 AM 41 °F - 36 °F 77% 30.05 in 34 mi East 6.9 mph - -   Scattered Clouds
11:50 AM 41.0 °F 36.4 °F 35.6 °F 81% 30.04 in 6.2 mi East 6.9 mph - N/A   Overcast
12:50 PM 41.0 °F 35.2 °F 35.6 °F 81% 30.04 in 6.2 mi East 9.2 mph - N/A   Overcast
1:50 PM 41.0 °F 35.8 °F 35.6 °F 81% 30.01 in 6.2 mi East 8.1 mph - N/A   Overcast
2:50 PM 42 °F - 36 °F 72% 30.00 in 37 mi East 8.1 mph - -   Scattered Clouds
2:50 PM 41.0 °F 35.8 °F 35.6 °F 81% 29.98 in 6.2 mi East 8.1 mph - N/A   Overcast
3:50 PM 41.0 °F 35.8 °F 35.6 °F 81% 29.98 in 6.2 mi East 8.1 mph - N/A   Overcast
4:50 PM 39.2 °F 34.2 °F 33.8 °F 81% 29.95 in - East 6.9 mph - N/A   Mostly Cloudy
5:50 PM 38 °F - 34 °F 78% 29.96 in 44 mi East 6.9 mph - -   Scattered Clouds
5:50 PM 39.2 °F 34.2 °F 33.8 °F 81% 29.95 in 6.2 mi East 6.9 mph - N/A   Mostly Cloudy
6:50 PM 35.6 °F 30.7 °F 32.0 °F 87% 29.92 in 6.2 mi East 5.8 mph - N/A   Mostly Cloudy
7:50 PM 37.4 °F 31.4 °F 32.0 °F 81% 29.89 in 6.2 mi East 8.1 mph - N/A   Mostly Cloudy
8:50 PM 35 °F - 31 °F 82% 29.89 in 25 mi East 6.9 mph - -   Scattered Clouds
8:50 PM 35.6 °F 29.9 °F 32.0 °F 87% 29.89 in 6.2 mi East 6.9 mph - N/A   Mostly Cloudy
9:50 PM 35.6 °F 29.9 °F 30.2 °F 81% 29.86 in 6.2 mi East 6.9 mph - N/A   Mostly Cloudy
10:50 PM 35.6 °F 28.0 °F 30.2 °F 81% 29.83 in 6.2 mi ESE 10.4 mph - N/A   Partly Cloudy
11:50 PM 35 °F - 30 °F 74% 29.82 in 37 mi East 12.7 mph - -   Scattered Clouds
11:50 PM 35.6 °F 27.1 °F 30.2 °F 81% 29.80 in 6.2 mi East 12.7 mph - N/A   Partly Cloudy